Torna al catalogo

STARLINK-31283

AttivoComunicazioniVLEO
NORAD 59174·PAYLOAD·🇺🇸 United States

Lanciato Mar 4, 2024 da Cape Canaveral Space Force Station

Loading…

Prossimi Passaggi (prossime 24 ore)

TLE

AggiornatoSource: CelesTrak SupGP

Epoca: Sep 14, 2026, 22:34 UTC

1 59174C 24044Y   26257.94076389  .00065278  00000+0  23646-2 0  2575
2 59174  43.0024  71.3198 0001680 273.2091   8.9676 15.27542484    18

Traccia STARLINK-31283 in tempo reale con AllMySat

Download on the App Store